Location: Baumgarten
(49.0970°N, 12.7493°E)
Time: 08:16:10
(UTC+00:00)

APEX - Pass Details

Date: 05 July 2020
Orbit: 333 x 1108 km, 69.9° (Epoch: 05 August)

Event Time Altitude Azimuth Distance (km) Brightness Sun altitude
Rises 23:38:21 0° 320° (NW) 2,132 7.0 -18.0°
Reaches altitude 10° 23:40:27 10° 306° (NW) 1,278 5.6 -18.0°
Enters shadow 23:42:01 22° 277° (W) 804 4.1 -18.0°
